Flag for U.S.A. Weather past 2 weeks in Irving, Texas, U.S.A.

Now
91 °F

Scattered clouds.


Feels Like: 98 °F
Forecast: 76 / 96 °F
Wind: 17 mph from South

Location: Dallas / Fort Worth International Airport

Current Time: Sep 1, 2014 at 1:43:47 PM

Latest Report: Sep 1, 2014 at 12:53 PM


Visibility: 10 mi

Pressure: 29.87 "Hg

Humidity: 54%

Dew point: 72 °F

Location of IrvingLocation

Historic Weather in Irving — Graph

°F

Irving temperature yesterday

Maximum temperature yesterday: 95 °F (at 3:53 PM)
Minimum temperature yesterday: 77 °F (at 3:53 AM)
Average temperature yesterday: 85 °F

Past Weeks' High & Low Weather Summary

 TemperatureHumidityPressure
High100 °F (Aug 22, 4:53 PM)94% (Aug 18, 1:53 AM)30.04 "Hg (Aug 18, 1:53 AM)
Low71 °F (Aug 29, 5:53 AM)27% (Aug 22, 6:53 PM)29.80 "Hg (Aug 28, 6:53 PM)
Average86 °F57%29.91 "Hg
* Reported Aug 17 11:53 AM — Sep 1 11:53 AM, Irving, Weather by CustomWeather, © 2014

Note: Actual official high and low records may vary slightly from our data, if they occured in-between our weather recording intervals... More about our weather records

Advertising

Irving weather history for previous 24 hours

 ConditionsComfort  
Time TempWeatherWind HumidityBarometerVisibility
11:53 AM
Sep 1
90 °FScattered clouds.20 mph54%29.88 "Hg10 mi
10:53 AM88 °FScattered clouds.21 mph59%29.88 "Hg10 mi
9:53 AM84 °FScattered clouds.16 mph67%29.89 "Hg10 mi
8:53 AM81 °FPartly sunny.22 mph74%29.88 "Hg10 mi
7:53 AM79 °FPassing clouds.16 mph79%29.88 "Hg10 mi
6:53 AM78 °FPassing clouds.16 mph79%29.86 "Hg10 mi
5:53 AM78 °FPassing clouds.22 mph79%29.85 "Hg10 mi
4:53 AM78 °FPassing clouds.16 mph79%29.85 "Hg10 mi
3:53 AM79 °FClear.16 mph74%29.85 "Hg10 mi
2:53 AM80 °FClear.17 mph69%29.85 "Hg10 mi
1:53 AM81 °FClear.17 mph67%29.85 "Hg10 mi
12:53 AM82 °FClear.17 mph65%29.85 "Hg10 mi
11:53 PM
Aug 31
83 °FClear.17 mph65%29.85 "Hg10 mi
10:53 PM85 °FClear.16 mph63%29.85 "Hg10 mi
9:53 PM86 °FPassing clouds.18 mph61%29.84 "Hg10 mi
8:53 PM88 °FPassing clouds.20 mph57%29.83 "Hg10 mi
7:53 PM91 °FPassing clouds.13 mph45%29.82 "Hg10 mi
6:53 PM93 °FPassing clouds.17 mph42%29.83 "Hg10 mi
5:53 PM94 °FScattered clouds.18 mph43%29.83 "Hg10 mi
4:53 PM93 °FScattered clouds.14 mph44%29.84 "Hg10 mi
3:53 PM95 °FScattered clouds.21 mph44%29.85 "Hg10 mi
2:53 PM94 °FScattered clouds.20 mph44%29.87 "Hg10 mi
1:53 PM93 °FPassing clouds.12 mph47%29.89 "Hg10 mi
Weather by CustomWeather, © 2014

See weather overviewHow to use our weather pages